User: anonymous   Login
Location: Pian di Sc�
(43.6333°N, 11.5500°E)
Time: 09:03:56
(UTC+00:00)
Language:

IRS-1C - Orbit

View from above orbital plane
View from above orbital plane
View from above satellite
View from above satellite

Ground track
Ground track

The orbit data is extracted from the following two-line orbital elements,

1 23751U 95072A   20293.43795207 +.00000006 +00000-0 +22608-4 0  9992
2 23751 098.8331 243.7357 0001134 094.6659 265.4648 14.22635189287880
Epoch (UTC): 19 October 2020 10:30:39
Eccentricity: 0.0001134
inclination: 98.8331°
perigee height: 815 km
apogee height: 817 km
right ascension of ascending node: 243.7357°
argument of perigee: 94.6659°
revolutions per day: 14.22635189
mean anomaly at epoch: 265.4648°
orbit number at epoch: 28788

The dashed part of the orbit path shows where the satellite is in the earth's shadow,  

DLR